When you browse on this site, cookies collect data to enhance your experience and personalize the content and advertising you see.
Visit our Privacy Policy to learn more. By continuing to use the site, you agree to this use of cookies and data.
  • In Lithuania
  • List of Countries
  • For 7 days
  • Water Temperature
  • Weather Map
  • Weather Widgets
  • user-avatar
    Login

    Hourly Weather Rutkowo

    Today, 21 August, Wednesday

    Time Temperature Precipitation Wind Pressure Humidity
    00:00 +18°C° 0.1 mm 2 mps 752 mmHg 70%
    01:00 +18°C° 0.1 mm 2 mps 752 mmHg 75%
    02:00 +17°C° 1.4 mm 3 mps 751 mmHg 80%
    03:00 +15°C° 1.4 mm 4 mps 751 mmHg 86%
    04:00 +14°C° 1.4 mm 4 mps 751 mmHg 92%
    05:00 +14°C° 2.5 mm 5 mps 751 mmHg 92%
    06:00 +14°C° 2.5 mm 5 mps 751 mmHg 91%
    07:00 +13°C° 2.5 mm 6 mps 751 mmHg 91%
    08:00 +13°C° 0.5 mm 5 mps 752 mmHg 91%
    09:00 +12°C° 0.5 mm 5 mps 752 mmHg 92%
    10:00 +12°C° 0.5 mm 4 mps 753 mmHg 92%
    11:00 +12°C° 0.1 mm 4 mps 753 mmHg 91%
    12:00 +13°C° 0.1 mm 3 mps 753 mmHg 90%
    13:00 +13°C° 0.1 mm 3 mps 754 mmHg 89%
    14:00 +14°C° 0 mm 3 mps 754 mmHg 84%
    15:00 +16°C° 0 mm 3 mps 754 mmHg 80%
    16:00 +18°C° 0 mm 2 mps 755 mmHg 76%
    17:00 +17°C° 0 mm 2 mps 755 mmHg 80%
    18:00 +16°C° 0 mm 1 mps 755 mmHg 84%
    19:00 +15°C° 0 mm 1 mps 755 mmHg 89%
    20:00 +14°C° 0 mm 1 mps 755 mmHg 90%
    21:00 +14°C° 0 mm 1 mps 755 mmHg 92%
    22:00 +14°C° 0 mm 1 mps 755 mmHg 93%
    23:00 +13°C° 0 mm 1 mps 756 mmHg 94%

    Tomorrow, 22 August, Thursday

    Time Temperature Precipitation Wind Pressure Humidity
    00:00 +13°C° 0 mm 1 mps 756 mmHg 94%
    01:00 +13°C° 0 mm 1 mps 756 mmHg 95%
    02:00 +12°C° 0 mm 1 mps 756 mmHg 94%
    03:00 +11°C° 0 mm 0 mps 756 mmHg 94%
    04:00 +11°C° 0 mm 0 mps 756 mmHg 94%
    05:00 +12°C° 0 mm 0 mps 756 mmHg 89%
    06:00 +14°C° 0 mm 0 mps 756 mmHg 85%
    07:00 +15°C° 0 mm 0 mps 757 mmHg 80%
    08:00 +19°C° 0 mm 1 mps 757 mmHg 72%
    09:00 +20°C° 0 mm 1 mps 757 mmHg 63%
    10:00 +22°C° 0 mm 1 mps 757 mmHg 54%
    11:00 +23°C° 0 mm 2 mps 757 mmHg 51%
    12:00 +23°C° 0 mm 2 mps 757 mmHg 48%
    13:00 +24°C° 0 mm 2 mps 757 mmHg 45%
    14:00 +24°C° 0 mm 2 mps 756 mmHg 46%
    15:00 +24°C° 0 mm 2 mps 756 mmHg 47%
    16:00 +23°C° 0 mm 2 mps 756 mmHg 48%
    17:00 +20°C° 0 mm 2 mps 756 mmHg 57%
    18:00 +20°C° 0 mm 1 mps 756 mmHg 66%
    19:00 +18°C° 0 mm 1 mps 756 mmHg 75%
    20:00 +16°C° 0 mm 1 mps 756 mmHg 78%
    21:00 +15°C° 0 mm 1 mps 756 mmHg 81%
    22:00 +15°C° 0 mm 1 mps 757 mmHg 83%
    23:00 +14°C° 0 mm 1 mps 756 mmHg 84%

    Day after tomorrow, 23 August, Friday

    Time Temperature Precipitation Wind Pressure Humidity
    00:00 +14°C° 0 mm 1 mps 756 mmHg 84%
    01:00 +14°C° 0 mm 1 mps 756 mmHg 85%
    02:00 +14°C° 0 mm 1 mps 756 mmHg 85%
    03:00 +13°C° 0 mm 1 mps 756 mmHg 85%
    04:00 +13°C° 0 mm 2 mps 756 mmHg 86%
    05:00 +15°C° 0 mm 2 mps 756 mmHg 81%
    06:00 +16°C° 0 mm 2 mps 756 mmHg 76%
    07:00 +18°C° 0 mm 2 mps 757 mmHg 71%
    08:00 +20°C° 0 mm 1 mps 757 mmHg 64%
    09:00 +22°C° 0 mm 1 mps 757 mmHg 58%
    10:00 +24°C° 0 mm 1 mps 757 mmHg 52%
    11:00 +24°C° 0 mm 1 mps 757 mmHg 49%
    12:00 +25°C° 0 mm 1 mps 757 mmHg 46%
    13:00 +26°C° 0 mm 1 mps 757 mmHg 44%
    14:00 +25°C° 0 mm 1 mps 756 mmHg 45%
    15:00 +25°C° 0 mm 1 mps 756 mmHg 46%
    16:00 +25°C° 0 mm 1 mps 756 mmHg 48%
    17:00 +23°C° 0 mm 1 mps 756 mmHg 54%
    18:00 +21°C° 0 mm 1 mps 756 mmHg 60%
    19:00 +19°C° 0 mm 1 mps 755 mmHg 67%
    20:00 +18°C° 0 mm 1 mps 755 mmHg 68%
    21:00 +18°C° 0 mm 1 mps 756 mmHg 70%
    22:00 +16°C° 0 mm 1 mps 756 mmHg 72%
    23:00 +16°C° 0 mm 1 mps 756 mmHg 72%

    24 August, Saturday

    Time Temperature Precipitation Wind Pressure Humidity
    00:00 +15°C° 0 mm 1 mps 756 mmHg 73%
    01:00 +15°C° 0 mm 1 mps 755 mmHg 73%
    02:00 +15°C° 0 mm 1 mps 755 mmHg 75%
    03:00 +14°C° 0 mm 1 mps 755 mmHg 77%
    04:00 +14°C° 0 mm 1 mps 755 mmHg 79%
    05:00 +15°C° 0 mm 1 mps 755 mmHg 75%
    06:00 +18°C° 0 mm 1 mps 755 mmHg 71%
    07:00 +19°C° 0 mm 1 mps 755 mmHg 67%
    08:00 +21°C° 0 mm 1 mps 755 mmHg 61%
    09:00 +22°C° 0 mm 1 mps 755 mmHg 54%
    10:00 +24°C° 0 mm 2 mps 755 mmHg 48%
    11:00 +25°C° 0 mm 2 mps 755 mmHg 46%
    12:00 +25°C° 0 mm 1 mps 755 mmHg 43%
    13:00 +26°C° 0 mm 1 mps 754 mmHg 40%
    14:00 +26°C° 0 mm 1 mps 754 mmHg 41%
    15:00 +26°C° 0 mm 1 mps 754 mmHg 42%
    16:00 +26°C° 0 mm 1 mps 754 mmHg 43%
    17:00 +23°C° 0 mm 1 mps 753 mmHg 51%
    18:00 +21°C° 0 mm 1 mps 753 mmHg 59%
    19:00 +19°C° 0 mm 1 mps 753 mmHg 66%
    20:00 +18°C° 0 mm 1 mps 753 mmHg 69%
    21:00 +18°C° 0 mm 1 mps 753 mmHg 71%
    22:00 +16°C° 0 mm 1 mps 754 mmHg 73%
    23:00 +16°C° 0 mm 1 mps 754 mmHg 74%

    25 August, Sunday

    Time Temperature Precipitation Wind Pressure Humidity
    00:00 +16°C° 0 mm 1 mps 754 mmHg 75%
    01:00 +15°C° 0 mm 1 mps 754 mmHg 76%
    02:00 +15°C° 0 mm 1 mps 754 mmHg 77%
    03:00 +15°C° 0 mm 1 mps 753 mmHg 78%
    04:00 +14°C° 0 mm 1 mps 753 mmHg 79%
    05:00 +16°C° 0 mm 1 mps 754 mmHg 76%
    06:00 +17°C° 0 mm 2 mps 754 mmHg 73%
    07:00 +18°C° 0 mm 2 mps 754 mmHg 70%
    08:00 +20°C° 0 mm 2 mps 754 mmHg 64%
    09:00 +23°C° 0 mm 2 mps 754 mmHg 58%
    10:00 +24°C° 0 mm 3 mps 754 mmHg 52%
    11:00 +25°C° 0 mm 3 mps 754 mmHg 50%
    12:00 +26°C° 0 mm 3 mps 754 mmHg 47%
    13:00 +26°C° 0 mm 3 mps 753 mmHg 45%
    14:00 +26°C° 0 mm 3 mps 753 mmHg 47%
    15:00 +26°C° 0 mm 3 mps 753 mmHg 49%
    16:00 +26°C° 0 mm 3 mps 753 mmHg 51%
    17:00 +24°C° 0 mm 2 mps 753 mmHg 57%
    18:00 +21°C° 0 mm 2 mps 752 mmHg 64%
    19:00 +19°C° 0 mm 2 mps 752 mmHg 71%
    20:00 +18°C° 0 mm 2 mps 752 mmHg 73%
    21:00 +18°C° 0 mm 2 mps 752 mmHg 76%
    22:00 +17°C° 0 mm 2 mps 753 mmHg 79%
    23:00 +16°C° 0 mm 2 mps 752 mmHg 80%

    26 August, Monday

    Time Temperature Precipitation Wind Pressure Humidity
    00:00 +16°C° 0 mm 2 mps 752 mmHg 82%
    01:00 +16°C° 0 mm 2 mps 752 mmHg 83%
    02:00 +15°C° 0 mm 2 mps 752 mmHg 84%
    03:00 +15°C° 0 mm 2 mps 751 mmHg 85%
    04:00 +15°C° 0 mm 2 mps 751 mmHg 85%
    05:00 +16°C° 0 mm 2 mps 751 mmHg 81%
    06:00 +17°C° 0 mm 2 mps 751 mmHg 77%
    07:00 +18°C° 0 mm 2 mps 751 mmHg 73%
    08:00 +20°C° 0 mm 2 mps 751 mmHg 66%
    09:00 +23°C° 0 mm 2 mps 751 mmHg 60%
    10:00 +25°C° 0 mm 2 mps 751 mmHg 54%
    11:00 +26°C° 0 mm 2 mps 751 mmHg 52%
    12:00 +27°C° 0 mm 1 mps 751 mmHg 49%
    13:00 +28°C° 0 mm 1 mps 751 mmHg 47%
    14:00 +27°C° 0 mm 1 mps 750 mmHg 49%
    15:00 +27°C° 0 mm 1 mps 750 mmHg 51%
    16:00 +27°C° 0 mm 1 mps 750 mmHg 54%
    17:00 +25°C° 0 mm 1 mps 750 mmHg 60%
    18:00 +23°C° 0 mm 2 mps 750 mmHg 67%
    19:00 +20°C° 0 mm 2 mps 750 mmHg 74%
    20:00 +19°C° 0 mm 2 mps 750 mmHg 77%
    21:00 +18°C° 0 mm 2 mps 751 mmHg 81%
    22:00 +18°C° 0 mm 2 mps 751 mmHg 84%
    23:00 +17°C° 0 mm 2 mps 751 mmHg 86%
    Show more